Voltar ao catálogo

FENGYUN 1C DEB

AtivoSSO
NORAD 30068·DEBRIS·🇨🇳 China

Lançado May 10, 1999 de Taiyuan Satellite Launch Center

Loading…

Próximas Passagens (próximas 24 horas)

TLE

AtualizadoSource: Space-Track

Época: Sep 14, 2026, 21:39 UTC

1 30068U 99025PV  26257.90241014  .00000167  00000-0  97513-4 0  9998
2 30068  98.7613 244.2806 0188660 283.6465  74.3763 14.12218211 12390

Acompanhe FENGYUN 1C DEB em tempo real com AllMySat

Download on the App Store